SEPLC ESMX-ESGG

Flight info

Callsign SEPLC
Flight time 0h 34m
Altitude 10000
Route DCT
Aircraft BE58/L-SDFGRY/C

Departure

Time 2026-05-05 11:15
Airport Växjö Kronoberg Airport (ESMX)

Arrival

Time 2026-05-05 11:50
Airport Göteborg Landvetter Airport (ESGG)
Time Latitude Longitude Altitude Speed Heading
2026-05-05 11:04 56.92312 14.72999 600 ft 0 kts 193°
2026-05-05 11:05 56.92319 14.73002 601 ft 2 kts 193°
2026-05-05 11:06 56.92322 14.73003 600 ft 0 kts 193°
2026-05-05 11:08 56.92321 14.73003 600 ft 1 kts 197°
2026-05-05 11:09 56.92326 14.72969 600 ft 7 kts 305°
2026-05-05 11:09 56.92358 14.72922 600 ft 6 kts 349°
2026-05-05 11:09 56.92416 14.72941 600 ft 11 kts 13°
2026-05-05 11:09 56.92489 14.72973 600 ft 9 kts 15°
2026-05-05 11:10 56.92540 14.73003 600 ft 5 kts 356°
2026-05-05 11:10 56.92558 14.72977 600 ft 3 kts 276°
2026-05-05 11:10 56.92558 14.72972 600 ft 0 kts 278°
2026-05-05 11:11 56.92561 14.72943 600 ft 8 kts 283°
2026-05-05 11:11 56.92583 14.72778 600 ft 17 kts 283°
2026-05-05 11:11 56.92641 14.72676 600 ft 16 kts 10°
2026-05-05 11:12 56.92812 14.72748 603 ft 32 kts 15°
2026-05-05 11:12 56.93060 14.72850 600 ft 39 kts 13°
2026-05-05 11:12 56.93323 14.72966 595 ft 39 kts 11°
2026-05-05 11:12 56.93563 14.73074 600 ft 32 kts 14°
2026-05-05 11:13 56.93752 14.73154 603 ft 22 kts 24°
2026-05-05 11:13 56.93824 14.73198 604 ft 7 kts 293°
2026-05-05 11:13 56.93784 14.73162 604 ft 10 kts 189°
2026-05-05 11:13 56.93757 14.73150 603 ft 0 kts 193°
2026-05-05 11:14 56.93700 14.73123 604 ft 43 kts 194°
2026-05-05 11:14 56.93082 14.72867 642 ft 126 kts 198°
2026-05-05 11:14 56.92128 14.72453 864 ft 152 kts 197°
2026-05-05 11:15 56.91072 14.72026 1043 ft 158 kts 196°
2026-05-05 11:15 56.89983 14.71604 1167 ft 163 kts 196°
2026-05-05 11:15 56.88880 14.71145 1249 ft 162 kts 198°
2026-05-05 11:15 56.87831 14.70447 1320 ft 159 kts 216°
2026-05-05 11:16 56.87089 14.69015 1348 ft 156 kts 246°
2026-05-05 11:16 56.86854 14.67070 1331 ft 157 kts 272°
2026-05-05 11:16 56.87038 14.65130 1368 ft 155 kts 288°
2026-05-05 11:16 56.87402 14.63259 1407 ft 155 kts 291°
2026-05-05 11:17 56.87795 14.61425 1449 ft 155 kts 293°
2026-05-05 11:17 56.88220 14.59607 1451 ft 159 kts 294°
2026-05-05 11:17 56.88628 14.57743 1542 ft 157 kts 290°
2026-05-05 11:17 56.89098 14.55922 1884 ft 159 kts 299°
2026-05-05 11:18 56.89670 14.54154 2130 ft 163 kts 299°
2026-05-05 11:18 56.90160 14.52290 2484 ft 164 kts 292°
2026-05-05 11:18 56.90523 14.50313 2824 ft 165 kts 287°
2026-05-05 11:18 56.90896 14.48297 3153 ft 169 kts 291°
2026-05-05 11:19 56.91322 14.46315 3463 ft 166 kts 291°
2026-05-05 11:19 56.91752 14.44340 3649 ft 171 kts 290°
2026-05-05 11:19 56.92191 14.42300 3800 ft 174 kts 293°
2026-05-05 11:19 56.92670 14.40278 4077 ft 171 kts 293°
2026-05-05 11:20 56.93113 14.38220 4117 ft 178 kts 292°
2026-05-05 11:20 56.93608 14.36085 4125 ft 185 kts 293°
2026-05-05 11:20 56.94113 14.33929 4262 ft 184 kts 293°
2026-05-05 11:20 56.94608 14.31782 4413 ft 181 kts 292°
2026-05-05 11:21 56.95107 14.29665 4580 ft 180 kts 294°
2026-05-05 11:21 56.95695 14.27666 4756 ft 178 kts 301°
2026-05-05 11:21 56.96351 14.25767 4925 ft 173 kts 301°
2026-05-05 11:21 56.97000 14.23918 5114 ft 173 kts 302°
2026-05-05 11:22 56.97654 14.22047 5294 ft 175 kts 302°
2026-05-05 11:22 56.98312 14.20171 5478 ft 174 kts 302°
2026-05-05 11:22 56.98977 14.18338 5653 ft 171 kts 304°
2026-05-05 11:22 56.99665 14.16568 5841 ft 170 kts 304°
2026-05-05 11:23 57.00353 14.14814 6022 ft 169 kts 304°
2026-05-05 11:23 57.01031 14.13093 6199 ft 167 kts 304°
2026-05-05 11:23 57.01706 14.11368 6387 ft 167 kts 304°
2026-05-05 11:23 57.02387 14.09641 6552 ft 166 kts 304°
2026-05-05 11:24 57.03068 14.07942 6723 ft 165 kts 304°
2026-05-05 11:24 57.03752 14.06258 6897 ft 164 kts 304°
2026-05-05 11:24 57.04430 14.04593 7072 ft 163 kts 304°
2026-05-05 11:24 57.05089 14.02907 7250 ft 162 kts 303°
2026-05-05 11:25 57.05727 14.01216 7431 ft 161 kts 302°
2026-05-05 11:25 57.06361 13.99547 7607 ft 160 kts 302°
2026-05-05 11:25 57.07001 13.97898 7783 ft 158 kts 302°
2026-05-05 11:25 57.07642 13.96268 7969 ft 156 kts 302°
2026-05-05 11:26 57.08278 13.94667 8123 ft 154 kts 302°
2026-05-05 11:26 57.08911 13.93078 8256 ft 154 kts 302°
2026-05-05 11:26 57.09545 13.91499 8381 ft 152 kts 302°
2026-05-05 11:26 57.10179 13.89937 8517 ft 152 kts 302°
2026-05-05 11:27 57.10810 13.88387 8642 ft 150 kts 302°
2026-05-05 11:27 57.11444 13.86848 8680 ft 155 kts 302°
2026-05-05 11:27 57.12110 13.85221 8558 ft 164 kts 303°
2026-05-05 11:27 57.12809 13.83481 8435 ft 173 kts 302°
2026-05-05 11:28 57.13531 13.81659 8288 ft 178 kts 303°
2026-05-05 11:28 57.14256 13.79811 8142 ft 182 kts 302°
2026-05-05 11:28 57.15001 13.77889 7999 ft 187 kts 303°
2026-05-05 11:28 57.15761 13.75923 7845 ft 189 kts 303°
2026-05-05 11:29 57.16524 13.73930 7700 ft 191 kts 303°
2026-05-05 11:29 57.17288 13.71911 7550 ft 192 kts 303°
2026-05-05 11:29 57.18053 13.69876 7403 ft 193 kts 302°
2026-05-05 11:29 57.18813 13.67831 7284 ft 193 kts 303°
2026-05-05 11:30 57.19575 13.65781 7163 ft 194 kts 303°
2026-05-05 11:30 57.20337 13.63713 7031 ft 195 kts 303°
2026-05-05 11:30 57.21090 13.61639 6905 ft 195 kts 302°
2026-05-05 11:30 57.21841 13.59560 6788 ft 196 kts 303°
2026-05-05 11:31 57.22597 13.57450 6668 ft 198 kts 302°
2026-05-05 11:31 57.23343 13.55348 6541 ft 198 kts 302°
2026-05-05 11:31 57.24092 13.53229 6416 ft 196 kts 302°
2026-05-05 11:31 57.24835 13.51121 6292 ft 196 kts 302°
2026-05-05 11:32 57.25569 13.49002 6162 ft 196 kts 302°
2026-05-05 11:32 57.26306 13.46866 6032 ft 198 kts 302°
2026-05-05 11:32 57.27050 13.44722 5895 ft 197 kts 302°
2026-05-05 11:32 57.27791 13.42592 5775 ft 196 kts 303°
2026-05-05 11:33 57.28531 13.40457 5630 ft 197 kts 302°
2026-05-05 11:33 57.29256 13.38338 5504 ft 199 kts 302°
2026-05-05 11:33 57.29993 13.36180 5377 ft 198 kts 302°
2026-05-05 11:33 57.30734 13.34015 5249 ft 199 kts 302°
2026-05-05 11:34 57.31484 13.31858 5123 ft 200 kts 302°
2026-05-05 11:34 57.32233 13.29683 4992 ft 200 kts 302°
2026-05-05 11:34 57.32985 13.27520 4938 ft 198 kts 302°
2026-05-05 11:34 57.33725 13.25403 5016 ft 192 kts 302°
2026-05-05 11:35 57.34442 13.23331 5020 ft 190 kts 302°
2026-05-05 11:35 57.35152 13.21266 5002 ft 190 kts 302°
2026-05-05 11:35 57.35861 13.19196 5005 ft 189 kts 302°
2026-05-05 11:35 57.36573 13.17120 4996 ft 192 kts 302°
2026-05-05 11:36 57.37281 13.15065 4993 ft 191 kts 302°
2026-05-05 11:36 57.37998 13.12988 5005 ft 193 kts 302°
2026-05-05 11:36 57.38728 13.10883 4993 ft 193 kts 303°
2026-05-05 11:36 57.39443 13.08795 4990 ft 190 kts 302°
2026-05-05 11:37 57.40081 13.06661 4995 ft 188 kts 298°
2026-05-05 11:37 57.40637 13.04468 4990 ft 187 kts 294°
2026-05-05 11:37 57.41139 13.02236 4996 ft 188 kts 293°
2026-05-05 11:37 57.41638 12.99992 4995 ft 187 kts 293°
2026-05-05 11:38 57.42131 12.97743 4994 ft 187 kts 292°
2026-05-05 11:38 57.42546 12.95457 4999 ft 187 kts 290°
2026-05-05 11:38 57.42934 12.93173 4991 ft 188 kts 289°
2026-05-05 11:38 57.43331 12.90862 4991 ft 188 kts 289°
2026-05-05 11:39 57.43730 12.88547 5009 ft 188 kts 289°
2026-05-05 11:39 57.44128 12.86220 4965 ft 190 kts 289°
2026-05-05 11:39 57.44524 12.83892 4824 ft 188 kts 289°
2026-05-05 11:39 57.44920 12.81590 4699 ft 187 kts 290°
2026-05-05 11:40 57.45340 12.79321 4575 ft 186 kts 290°
2026-05-05 11:40 57.45479 12.78549 4530 ft 187 kts 290°
2026-05-05 11:40 57.45912 12.76177 4384 ft 187 kts 290°
2026-05-05 11:40 57.46384 12.73914 4255 ft 189 kts 296°
2026-05-05 11:41 57.46981 12.71747 4121 ft 188 kts 298°
2026-05-05 11:41 57.47594 12.69603 3996 ft 189 kts 298°
2026-05-05 11:41 57.48202 12.67445 3865 ft 188 kts 298°
2026-05-05 11:41 57.48801 12.65326 3690 ft 186 kts 298°
2026-05-05 11:42 57.49395 12.63194 3544 ft 185 kts 298°
2026-05-05 11:42 57.49998 12.61059 3395 ft 187 kts 297°
2026-05-05 11:42 57.50605 12.58915 3217 ft 185 kts 298°
2026-05-05 11:42 57.51003 12.57524 3137 ft 185 kts 298°
2026-05-05 11:43 57.51592 12.55389 2932 ft 187 kts 297°
2026-05-05 11:43 57.52179 12.53203 2856 ft 190 kts 296°
2026-05-05 11:43 57.52860 12.51230 2735 ft 174 kts 310°
2026-05-05 11:43 57.53749 12.49788 2534 ft 167 kts 325°
2026-05-05 11:44 57.54718 12.48674 2333 ft 161 kts 319°
2026-05-05 11:44 57.55398 12.47061 2111 ft 161 kts 294°
2026-05-05 11:44 57.55680 12.45027 1828 ft 165 kts 281°
2026-05-05 11:44 57.55917 12.42896 1610 ft 170 kts 285°
2026-05-05 11:45 57.56274 12.40797 1457 ft 168 kts 290°
2026-05-05 11:45 57.56622 12.38728 1331 ft 166 kts 287°
2026-05-05 11:45 57.56856 12.36682 1335 ft 160 kts 278°
2026-05-05 11:45 57.56863 12.34653 1390 ft 156 kts 266°
2026-05-05 11:46 57.56627 12.32661 1442 ft 160 kts 255°
2026-05-05 11:46 57.56165 12.30737 1616 ft 164 kts 245°
2026-05-05 11:46 57.55667 12.28820 1621 ft 164 kts 256°
2026-05-05 11:46 57.55567 12.26734 1588 ft 160 kts 279°
2026-05-05 11:47 57.56068 12.24915 1596 ft 164 kts 315°
2026-05-05 11:47 57.57115 12.24070 1571 ft 168 kts 345°
2026-05-05 11:47 57.58207 12.23608 1622 ft 157 kts 343°
2026-05-05 11:47 57.59232 12.23227 1721 ft 143 kts 346°
2026-05-05 11:48 57.61130 12.23491 1409 ft 137 kts 14°
2026-05-05 11:48 57.61976 12.24145 1247 ft 123 kts 14°
2026-05-05 11:48 57.62739 12.24792 1101 ft 117 kts 20°
2026-05-05 11:49 57.63455 12.25420 962 ft 112 kts 18°
2026-05-05 11:49 57.64160 12.26065 791 ft 113 kts 17°
2026-05-05 11:49 57.64848 12.26683 586 ft 104 kts 18°
2026-05-05 11:49 57.65477 12.27240 496 ft 94 kts 19°
2026-05-05 11:50 57.65966 12.27690 501 ft 61 kts 26°
2026-05-05 11:50 57.66276 12.27976 504 ft 40 kts 26°
2026-05-05 11:50 57.66486 12.28164 506 ft 26 kts 27°
2026-05-05 11:50 57.66601 12.28299 506 ft 19 kts 41°
2026-05-05 11:51 57.66684 12.28487 506 ft 19 kts 53°
2026-05-05 11:51 57.66746 12.28658 507 ft 9 kts 58°
2026-05-05 11:51 57.66772 12.28728 507 ft 0 kts 56°
2026-05-05 11:52 57.66771 12.28728 507 ft 0 kts 56°
2026-05-05 11:54 57.66772 12.28729 507 ft 1 kts 56°
2026-05-05 11:54 57.66790 12.28776 507 ft 6 kts 49°
2026-05-05 11:54 57.66819 12.28821 507 ft 6 kts 47°
2026-05-05 11:54 57.66829 12.28869 508 ft 5 kts 90°
2026-05-05 11:55 57.66820 12.28926 510 ft 5 kts 117°
2026-05-05 11:55 57.66797 12.29016 510 ft 8 kts 114°
2026-05-05 11:55 57.66778 12.29088 510 ft 5 kts 116°
2026-05-05 11:55 57.66756 12.29129 510 ft 4 kts 179°
2026-05-05 11:56 57.66712 12.29093 510 ft 9 kts 206°
2026-05-05 11:56 57.66649 12.29034 510 ft 10 kts 206°
2026-05-05 11:56 57.66589 12.28982 510 ft 8 kts 206°
2026-05-05 11:56 57.66548 12.28950 510 ft 0 kts 184°
2026-05-05 11:57 57.66529 12.28962 510 ft 5 kts 158°
2026-05-05 11:57 57.66510 12.28958 510 ft 2 kts 237°
2026-05-05 11:57 57.66519 12.28913 510 ft 5 kts 295°
2026-05-05 11:58 57.66532 12.28861 510 ft 3 kts 295°
2026-05-05 11:58 57.66533 12.28858 510 ft 0 kts 296°